Torna al catalogo

JILIN-01 GAOFEN 3H

AttivoScienzaSSO
NORAD 46460·PAYLOAD·🇨🇳 China

Lanciato Sep 15, 2020 da Yellow Sea Launch Area

Loading…

Prossimi Passaggi (prossime 24 ore)

TLE

AggiornatoSource: Space-Track

Epoca: Sep 14, 2026, 13:50 UTC

1 46460U 20065G   26257.57659459  .00199083  00000-0  73229-3 0  9991
2 46460  97.2017 314.2682 0000583 306.4050  53.7168 15.87759905333968

Traccia JILIN-01 GAOFEN 3H in tempo reale con AllMySat

Download on the App Store